View from above orbital plane
|
View from above satellite
|
Ground track
|
The orbit data is extracted from the following two-line orbital elements,
1 42000U 17008BE 19345.71133003 +.00000732 +00000-0 +32975-4 0 9994
2 42000 097.3815 048.8246 0006844 263.4482 096.5976 15.24169154156017
Epoch (UTC): | 11 December 2019 17:04:18 |
Eccentricity: | 0.0006844 |
inclination: | 97.3815° |
perigee height: | 488 km |
apogee height: | 498 km |
right ascension of ascending node: | 48.8246° |
argument of perigee: | 263.4482° |
revolutions per day: | 15.24169154 |
mean anomaly at epoch: | 96.5976° |
orbit number at epoch: | 15601 |
The dashed part of the orbit path shows where the satellite is in the earth's shadow,
|
|